FW6803 Weather Reports


time (UTC)temp
C
wind
direction
speed
KPH
gust
KPH
rain 1hr
cm
rain 24hr
cm
rain mn
cm
humidity
%
barometer
mb
20260506104547 13 360 0.0 0.0 0.00 0.00 0.00 85 1011.2
20260506103047 13 350 0.0 0.0 0.00 0.00 0.00 85 1011.2
20260506101549 13 323 0.0 0.0 0.00 0.00 0.00 84 1011.1
20260506100057 13 294 0.0 0.0 0.00 0.00 0.00 84 1011.1
20260506094536 13 350 0.0 12.9 0.00 0.03 0.00 84 1011.2
20260506093042 13 333 0.0 11.3 0.00 0.03 0.00 83 1011.2
20260506091537 13 306 0.0 9.7 0.00 0.03 0.00 83 1011.0
20260506090033 13 329 1.6 9.7 0.00 0.03 0.00 83 1011.1
20260506084531 13 328 1.6 8.0 0.00 0.10 0.00 83 1011.1
20260506083032 13 321 8.0 14.5 0.00 0.10 0.00 84 1011.1
20260506081533 13 342 4.8 12.9 0.00 0.10 0.00 84 1011.2
20260506073037 13 333 0.0 9.7 0.00 0.15 0.10 85 1010.9
20260506071523 13 294 1.6 11.3 0.00 0.15 0.10 85 1010.9
20260506061518 13 313 0.0 9.7 0.00 0.20 0.10 84 1010.5
20260506044531 13 306 3.2 14.5 0.00 0.28 0.10 84 1010.0
20260506043011 13 301 3.2 12.9 0.00 0.28 0.10 83 1009.9
20260506041509 13 360 3.2 12.9 0.00 0.28 0.10 83 1009.7
20260506040006 13 331 4.8 14.5 0.00 0.28 0.10 82 1009.3
20260506034511 13 270 6.4 22.5 0.00 0.28 0.10 81 1009.1
20260506033007 13 273 8.0 17.7 0.00 0.28 0.10 81 1009.0
20260506031502 13 314 6.4 17.7 0.00 0.28 0.10 80 1008.8
20260506030100 14 290 6.4 19.3 0.00 0.28 0.10 80 1008.6
20260506024559 14 250 6.4 20.9 0.00 0.28 0.10 79 1008.5
20260506023111 14 275 11.3 24.1 0.00 0.28 0.10 78 1008.5
20260506021558 15 280 9.7 25.7 0.00 0.28 0.10 77 1008.2
20260506020058 15 280 11.3 22.5 0.00 0.28 0.10 76 1008.1
20260506014556 15 278 11.3 20.9 0.00 0.28 0.10 74 1008.1
20260506013058 16 273 6.4 20.9 0.00 0.28 0.10 73 1008.2
20260506011617 16 298 6.4 25.7 0.00 0.28 0.10 72 1008.1
20260506004621 17 360 9.7 24.1 0.00 0.28 0.10 70 1008.0
20260506003108 16 290 14.5 25.7 0.00 0.28 0.10 71 1007.8
20260506001556 16 295 16.1 25.7 0.00 0.28 0.10 71 1007.7
20260506000052 16 280 9.7 24.1 0.00 0.28 0.10 72 1007.7
20260505234614 16 306 12.9 24.1 0.00 0.28 0.10 73 1007.8
20260505233050 16 295 11.3 29.0 0.00 0.28 0.10 71 1007.9
20260505231549 17 277 11.3 27.4 0.00 0.28 0.10 70 1007.8
20260505230048 17 320 12.9 24.1 0.00 0.28 0.10 70 1007.8
20260505224548 17 360 16.1 29.0 0.00 0.28 0.10 69 1007.8
20260505223047 17 300 14.5 27.4 0.00 0.28 0.10 71 1007.7
20260505221546 16 296 11.3 22.5 0.00 0.28 0.10 73 1007.9
20260505220058 16 344 12.9 25.7 0.00 0.28 0.10 73 1008.1
20260505214544 16 300 14.5 27.4 0.00 0.28 0.10 74 1008.1
20260505213042 16 360 14.5 27.4 0.00 0.28 0.10 73 1008.2
20260505211546 16 283 16.1 25.7 0.00 0.28 0.10 72 1008.3
20260505210039 17 288 12.9 22.5 0.00 0.28 0.10 71 1008.3
20260505204538 17 307 6.4 20.9 0.00 0.28 0.10 71 1008.3
20260505203038 17 355 9.7 17.7 0.00 0.28 0.10 70 1008.3
20260505201538 17 333 9.7 24.1 0.00 0.28 0.10 69 1008.2
20260505200037 17 9 9.7 20.9 0.00 0.28 0.10 68 1008.2
20260505194539 17 19 8.0 20.9 0.00 0.28 0.10 70 1008.4
20260505193040 17 300 6.4 22.5 0.00 0.28 0.10 71 1008.4
20260505191544 16 309 9.7 20.9 0.00 0.28 0.10 74 1008.6
20260505190028 16 305 9.7 22.5 0.00 0.28 0.10 75 1008.3
20260505184528 16 346 8.0 24.1 0.00 0.28 0.10 77 1008.3
20260505183029 16 300 11.3 24.1 0.00 0.28 0.10 77 1008.4
20260505181525 15 301 11.3 20.9 0.00 0.28 0.10 77 1008.3
20260505180037 15 286 6.4 20.9 0.00 0.28 0.10 82 1008.1
20260505174530 15 307 6.4 16.1 0.00 0.28 0.10 84 1008.0
20260505173015 14 279 9.7 17.7 0.00 0.28 0.10 85 1008.0
20260505171515 13 315 8.0 20.9 0.00 0.28 0.10 86 1007.9
20260505170019 13 347 3.2 17.7 0.00 0.28 0.10 87 1007.9
20260505164507 13 274 1.6 14.5 0.00 0.28 0.10 88 1007.9
20260505163004 13 350 6.4 12.9 0.00 0.28 0.10 88 1007.9
20260505161502 13 54 4.8 14.5 0.00 0.28 0.10 88 1007.8
20260505153059 12 5 4.8 16.1 0.00 0.28 0.10 87 1007.5
20260505151554 12 344 8.0 22.5 0.00 0.28 0.10 87 1007.4
20260505124541 12 261 8.0 22.5 0.00 0.28 0.10 86 1006.6
20260505123058 12 283 8.0 14.5 0.00 0.28 0.10 86 1006.6
20260505121538 12 273 8.0 17.7 0.00 0.28 0.10 86 1006.6
20260505120036 12 279 9.7 20.9 0.00 0.28 0.10 86 1006.6
20260505114548 11 284 6.4 14.5 0.00 0.28 0.10 86 1006.6
20260505113038 11 284 3.2 9.7 0.00 0.28 0.10 86 1006.7
20260505111551 11 304 8.0 17.7 0.00 0.28 0.10 87 1006.8